Location: Dvur Kralove nad Labem
(50.4330°N, 15.8170°E)
Time: 15:02:12
(UTC+02:00)

ISS - Pass Details

Date: 26 May 2018
Orbit: 402 x 407 km, 51.6° (Epoch: 24 May)

Event Time Altitude Azimuth Distance (km) Brightness Sun altitude
Rises 22:43:59 0° 271° (W) 2,320 0.5 -12.8°
Reaches altitude 10° 22:46:05 10° 274° (W) 1,459 -0.5 -13.0°
Maximum altitude 22:49:20 69° 358° (N) 436 -3.5 -13.2°
Drops below altitude 10° 22:52:36 10° 82° (E) 1,458 -1.2 -13.5°
Enters shadow 22:53:47 - 84° (E) 1,942 -0.6 -13.6°
